Location: Silverdale
(47.6506°N, 122.6941°W)
Time: 03:20:28
(UTC+00:00)

Altair - Pass Details

Date: 06 October 2022
Orbit: 1501 x 1682 km, 47.2° (Epoch: 05 December)

Event Time Altitude Azimuth Distance (km) Brightness Sun altitude
Rises 11:06:15 0° 205° (SSW) 4,711 - -31.7°
Reaches altitude 10° 11:09:36 10° 197° (SSW) 3,756 - -31.3°
Exits shadow 11:13:56 26° 176° (S) 2,756 8.6 -30.6°
Maximum altitude 11:17:53 35° 137° (SE) 2,398 8.5 -30.0°
Drops below altitude 10° 11:26:27 10° 77° (ENE) 3,892 10.5 -28.8°
Sets 11:29:59 0° 69° (ENE) 4,903 11.4 -28.2°
